Date String (YYYY-MM-DD hh:mm:ss) UTC,Instrument flags,Ambient pressure (hPa),Sample flow (lpm),Bypass flow (lpm),Sample temperature (°C),Ambient temperature (°C),ASC tube jacket temperature (°C),LED temperature (°C),Box temperature (°C),Sample RH (%),Span deviation,Mass concentration (μg/m³),Mass concentration (μg/m³),Mass concentration (μg/m³)
DateTimeUTC,F1_M11,P_M11,Q1_M11,Q2_M11,T1_M11,T2_M11,T3_M11,T4_M11,T5_M11,U1_M11,ZSPAN_M11,X0_M11,X2_M11,X1_M11
2022-02-25 02:00:00,,0825.6,5.01,0.00,22.4,21.5,00.0,31.5,24.0,06.1,0000.2,0013.38,0008.58,0007.86
2022-02-25 02:01:00,,0825.7,5.00,0.00,22.3,21.4,00.0,31.5,23.9,06.2,0000.5,0013.27,0008.55,0007.86
2022-02-25 02:02:00,,0825.6,4.99,0.00,22.2,21.3,00.0,31.5,23.8,06.2,0000.6,0013.42,0008.55,0007.86
2022-02-25 02:03:00,,0825.6,4.99,0.00,22.2,21.2,00.0,31.4,23.7,06.2,0001.2,0013.46,0008.57,0007.87
2022-02-25 02:04:00,,0825.7,5.01,0.00,22.1,21.3,00.0,31.4,23.7,06.3,0001.1,0013.32,0008.58,0007.89
2022-02-25 02:05:00,,0825.7,4.99,0.00,22.2,21.9,00.0,31.4,23.9,06.3,0000.8,0013.44,0008.57,0007.90
2022-02-25 02:06:00,,0825.8,5.00,0.00,22.3,22.7,00.0,31.4,24.2,06.2,0000.7,0013.25,0008.52,0007.90
2022-02-25 02:07:00,,0825.8,5.00,0.00,22.5,22.9,00.0,31.5,24.4,06.2,0000.6,0013.02,0008.50,0007.89
2022-02-25 02:08:00,,0825.8,5.01,0.00,22.5,22.7,00.0,31.5,24.4,06.2,0001.6,0012.85,0008.50,0007.88
2022-02-25 02:09:00,,0825.8,4.99,0.00,22.5,22.5,00.0,31.5,24.4,06.2,0002.4,0013.13,0008.54,0007.88
2022-02-25 02:10:00,,0825.7,5.00,0.00,22.5,22.3,00.0,31.5,24.3,06.2,0002.5,0013.19,0008.54,0007.89
2022-02-25 02:11:00,,0825.7,5.01,0.00,22.5,22.1,00.0,31.5,24.2,06.2,0002.8,0013.42,0008.60,0007.92
2022-02-25 02:12:00,,0825.7,5.00,0.00,22.4,22.0,00.0,31.4,24.2,06.2,0002.5,0013.52,0008.64,0007.94
2022-02-25 02:13:00,,0825.7,4.99,0.00,22.4,21.9,00.0,31.4,24.2,06.2,0002.0,0013.35,0008.62,0007.94
2022-02-25 02:14:00,,0825.7,5.00,0.00,22.4,21.8,00.0,31.4,24.1,06.2,0001.3,0014.08,0008.63,0007.96
2022-02-25 02:15:00,,0825.8,5.00,0.00,22.4,21.7,00.0,31.4,24.1,06.2,0001.1,0014.19,0008.63,0007.97
2022-02-25 02:16:00,,0825.9,5.00,0.00,22.4,21.7,00.0,31.4,24.1,06.3,0001.1,0014.03,0008.62,0007.98
2022-02-25 02:17:00,,0825.9,5.01,0.00,22.3,21.6,00.0,31.4,24.0,06.3,0000.9,0014.10,0008.66,0008.00
2022-02-25 02:18:00,,0826.0,5.00,0.00,22.3,21.6,00.0,31.4,24.0,06.3,0000.9,0014.51,0008.68,0008.02
2022-02-25 02:19:00,,0825.9,5.00,0.00,22.3,21.5,00.0,31.4,24.0,06.3,0000.6,0014.65,0008.75,0008.08
2022-02-25 02:20:00,,0825.9,5.00,0.00,22.2,21.5,00.0,31.4,23.9,06.3,0000.6,0014.77,0008.79,0008.12
2022-02-25 02:21:00,,0825.9,5.00,0.00,22.2,21.5,00.0,31.3,23.9,06.3,0000.5,0014.84,0008.87,0008.17
2022-02-25 02:22:00,,0825.9,5.00,0.00,22.3,22.1,00.0,31.4,24.1,06.2,0000.2,0014.81,0008.92,0008.20
2022-02-25 02:23:00,,0825.8,5.00,0.00,22.4,22.8,00.0,31.4,24.3,06.1,0000.8,0014.92,0008.97,0008.23
2022-02-25 02:24:00,,0825.8,5.00,0.00,22.6,23.3,00.0,31.4,24.6,06.0,0001.2,0015.58,0009.03,0008.25
2022-02-25 02:25:00,,0825.8,5.00,0.00,22.7,23.2,00.0,31.5,24.6,05.9,0001.1,0014.95,0009.09,0008.28
2022-02-25 02:26:00,,0825.9,4.99,0.00,22.7,23.0,00.0,31.5,24.6,05.9,0001.2,0015.00,0009.13,0008.31
2022-02-25 02:27:00,,0825.9,5.01,0.00,22.7,22.7,00.0,31.5,24.5,06.0,0001.2,0015.12,0009.20,0008.35
2022-02-25 02:28:00,,0825.9,5.00,0.00,22.6,22.5,00.0,31.5,24.4,06.0,0001.3,0015.48,0009.24,0008.39
2022-02-25 02:29:00,,0825.8,5.00,0.00,22.6,22.3,00.0,31.5,24.3,06.0,0001.6,0015.23,0009.26,0008.42
2022-02-25 02:30:00,,0825.8,5.00,0.00,22.5,22.1,00.0,31.5,24.2,06.0,0001.4,0015.07,0009.23,0008.44
2022-02-25 02:31:00,,0825.9,4.99,0.00,22.5,22.0,00.0,31.5,24.2,06.0,0001.3,0014.69,0009.20,0008.44
2022-02-25 02:32:00,,0825.9,5.00,0.00,22.5,21.9,00.0,31.5,24.1,06.0,0001.7,0014.67,0009.17,0008.43
2022-02-25 02:33:00,,0825.9,5.00,0.00,22.4,21.8,00.0,31.5,24.1,06.0,0001.8,0014.83,0009.18,0008.43
2022-02-25 02:34:00,,0825.9,5.00,0.00,22.4,21.7,00.0,31.5,24.1,06.0,0001.7,0014.91,0009.23,0008.46
2022-02-25 02:35:00,,0825.9,5.02,0.00,22.4,21.6,00.0,31.4,24.0,06.0,0001.8,0014.43,0009.27,0008.48
2022-02-25 02:36:00,,0826.0,5.01,0.00,22.3,21.5,00.0,31.4,24.0,06.0,0002.0,0014.08,0009.24,0008.48
2022-02-25 02:37:00,,0826.0,4.99,0.00,22.3,21.4,00.0,31.4,23.9,06.0,0002.2,0014.05,0009.27,0008.49
2022-02-25 02:38:00,,0826.0,5.00,0.00,22.2,21.4,00.0,31.4,23.9,06.0,0002.0,0014.09,0009.27,0008.49
2022-02-25 02:39:00,,0826.0,5.00,0.00,22.3,21.9,00.0,31.4,24.0,05.9,0002.1,0014.25,0009.22,0008.47
2022-02-25 02:40:00,,0826.0,4.99,0.00,22.4,22.6,00.0,31.4,24.2,05.9,0001.9,0014.32,0009.22,0008.46
2022-02-25 02:41:00,,0826.0,4.99,0.00,22.6,23.2,00.0,31.5,24.5,05.8,0001.9,0014.38,0009.20,0008.44
2022-02-25 02:42:00,,0826.0,5.01,0.00,22.6,23.1,00.0,31.5,24.5,05.8,0001.8,0014.36,0009.16,0008.40
2022-02-25 02:43:00,,0826.0,4.99,0.00,22.6,22.8,00.0,31.5,24.5,05.8,0001.5,0014.26,0009.13,0008.37
2022-02-25 02:44:00,,0826.1,5.00,0.00,22.6,22.6,00.0,31.5,24.4,05.8,0001.1,0014.08,0009.08,0008.33
2022-02-25 02:45:00,,0826.1,4.99,0.00,22.6,22.3,00.0,31.5,24.3,05.8,0000.8,0013.90,0009.01,0008.29
2022-02-25 02:46:00,,0826.0,5.00,0.00,22.5,22.1,00.0,31.5,24.2,05.8,0000.2,0013.73,0008.91,0008.23
2022-02-25 02:47:00,,0826.0,5.00,0.00,22.4,22.0,00.0,31.5,24.1,05.9,0000.0,0013.80,0008.88,0008.21
2022-02-25 02:48:00,,0826.0,5.00,0.00,22.4,21.8,00.0,31.5,24.0,05.9,-000.2,0013.66,0008.80,0008.17
2022-02-25 02:49:00,,0826.0,5.00,0.00,22.3,21.6,00.0,31.5,23.9,05.9,-000.3,0014.11,0008.76,0008.13
2022-02-25 02:50:00,,0826.0,5.02,0.00,22.3,21.5,00.0,31.4,23.9,06.0,-000.7,0013.54,0008.75,0008.11
2022-02-25 02:51:00,,0826.1,5.00,0.00,22.2,21.4,00.0,31.4,23.9,06.0,-000.7,0013.19,0008.74,0008.09
2022-02-25 02:52:00,,0826.1,5.00,0.00,22.2,21.4,00.0,31.4,23.8,06.0,-000.4,0013.11,0008.77,0008.10
2022-02-25 02:53:00,,0826.0,4.99,0.00,22.2,21.4,00.0,31.4,23.8,06.0,-000.2,0013.14,0008.79,0008.12
2022-02-25 02:54:00,,0826.0,5.00,0.00,22.2,22.0,00.0,31.4,23.9,06.0,-000.1,0013.32,0008.84,0008.14
2022-02-25 02:55:00,,0826.0,4.99,0.00,22.3,22.6,00.0,31.4,24.2,06.0,-000.5,0013.22,0008.83,0008.14
2022-02-25 02:56:00,,0826.0,5.00,0.00,22.5,23.1,00.0,31.4,24.4,06.0,-000.4,0013.83,0008.87,0008.15
2022-02-25 02:57:00,,0826.1,5.00,0.00,22.6,23.1,00.0,31.4,24.5,05.9,0000.3,0014.08,0008.93,0008.17
2022-02-25 02:58:00,,0826.1,4.99,0.00,22.6,22.8,00.0,31.4,24.4,05.9,0000.8,0014.62,0008.96,0008.20
2022-02-25 02:59:00,,0826.1,5.00,0.00,22.5,22.5,00.0,31.4,24.2,05.9,0001.3,0014.74,0008.99,0008.22
